User: anonymous   Login
Location: Unspecified
(0.0000°N, 0.0000°E)
Time: 16:05:09
(UTC+01:00)
Language:

SWIFT - Orbit

View from above orbital plane
View from above orbital plane
View from above satellite
View from above satellite

Ground track
Ground track

The orbit data is extracted from the following two-line orbital elements,

1 28485U 04047A   17350.21208939  .00000952  00000-0  35494-4 0  9997
2 28485  20.5575 302.0078 0011318  19.4523 340.6341 15.03972372715644
Epoch (UTC): 16 December 2017 05:05:24
Eccentricity: 0.0011318
inclination: 20.5575°
perigee height: 547 km
apogee height: 562 km
right ascension of ascending node: 302.0078°
argument of perigee: 19.4523°
revolutions per day: 15.03972372
mean anomaly at epoch: 340.6341°
orbit number at epoch: 71564

The dashed part of the orbit path shows where the satellite is in the earth's shadow,  

DLR